Skip Page Navigation
NASA JPL Caltech
NASA Logo - Jet Propulsion Laboratory + View the NASA Portal
+ Center for Near-Earth Object Studies
JPL Home Earth Solar System Stars & Galaxies Technology
JPL Solar System Dynamics
BODIES ORBITS EPHEMERIDES TOOLS PHYSICAL DATA DISCOVERY FAQ SITE MAP
JPL Small-Body Database Browser
Search: [ help ]  
441019 (2007 EE135)
Classification: Main-belt Asteroid          SPK-ID: 2441019
Ephemeris | Orbit Diagram | Orbital Elements | Mission Design | Physical Parameters | Discovery Circumstances | Close-Approach Data ]

[ show orbit diagram ]
Orbital Elements at Epoch 2459000.5 (2020-May-31.0) TDB
Reference: JPL 11 (heliocentric ecliptic J2000)
 Element Value Uncertainty (1-sigma)   Units 
e .07999756275377605 6.3721e-08  
a 3.180221685967915 7.3607e-08 au
q 2.925811702073777 2.0378e-07 au
i 10.79991733893492 8.5855e-06 deg
node 154.598880888284 3.8231e-05 deg
peri 264.9931409632298 6.7336e-05 deg
M 200.2666635922631 5.5206e-05 deg
tp 2459919.631353795697
(2022-Dec-06.13135380)
0.00032555 TDB
period 2071.498002907951
5.67
7.1918e-05
1.969e-07
d
yr
n .1737872783341501 6.0336e-09 deg/d
Q 3.434631669862053 7.9496e-08 au
  Orbit Determination Parameters
   # obs. used (total)      98  
   data-arc span      4481 days (12.27 yr)  
   first obs. used      2007-01-29  
   last obs. used      2019-05-07  
   planetary ephem.      DE431  
   SB-pert. ephem.      SB431-N16  
   condition code      0  
   norm. resid. RMS      .61638  
   source      ORB  
   producer      Otto Matic  
   solution date      2019-May-30 10:12:48  

Additional Information
 Earth MOID = 1.96375 au 
 Jupiter MOID = 1.85851 au 
 T_jup = 3.167 
[ hide covariance matrix ]
Orbital Elements at Epoch 2457617.5 (2016-Aug-17.0) TDB
Reference: JPL 11 (heliocentric ecliptic J2000)
 Element Value Uncertainty (1-sigma)   Units 
e .08182896758874704 6.3668e-08  
q 2.918754802337488 2.0417e-07 au
tp 2457851.813043772620
(2017-Apr-08.31304377)
0.00030508 TDB
node 154.6523645642836 3.8242e-05 deg
peri 265.2906609303899 6.6241e-05 deg
i 10.80050137533413 8.5863e-06 deg
  Orbit Determination Parameters
   # obs. used (total)      98  
   data-arc span      4481 days (12.27 yr)  
   first obs. used      2007-01-29  
   last obs. used      2019-05-07  
   planetary ephem.      DE431  
   SB-pert. ephem.      SB431-N16  
   condition code      0  
   norm. resid. RMS      .61638  
   source      ORB  
   producer      Otto Matic  
   solution date      2019-May-30 10:12:48  

Additional Information
 Jupiter MOID = 1.85851 au 
 T_jup = 3.167 
Orbit Covariance (6×6)
  e q tp node peri i
e 4.053673447617979E-15 -1.225707138555924E-14 -2.229322505771582E-12 -4.895585807511519E-16 -3.980513821511939E-13 -1.790522717720936E-15
q -1.225707138555924E-14 4.16871527948011E-14 8.145404366784303E-12 4.449529471223021E-16 1.358313572669162E-12 1.41562994393077E-14
tp -2.229322505771582E-12 8.145404366784303E-12 9.307186496184148E-8 4.915520315323084E-11 1.655944898228814E-8 -7.214930810053242E-14
node -4.895585807511519E-16 4.449529471223021E-16 4.915520315323084E-11 1.462416049506223E-9 -1.426690945393581E-9 2.507367348203061E-11
peri -3.980513821511939E-13 1.358313572669162E-12 1.655944898228814E-8 -1.426690945393581E-9 4.387854496564226E-9 -2.461767199292285E-11
i -1.790522717720936E-15 1.41562994393077E-14 -7.214930810053242E-14 2.507367348203061E-11 -2.461767199292285E-11 7.372452700282942E-11

Ephemeris | Orbit Diagram | Orbital Elements | Mission Design | Physical Parameters | Discovery Circumstances | Close-Approach Data ]

Physical Parameter Table
Parameter Symbol Value Units Sigma Reference Notes
absolute magnitude H 16.2   n/a MPO434636  

441019 (2007 EE135)          Discovered 2007-Jan-29 by Spacewatch at Kitt Peak
Reference: Last Updated: 2015-09-02

[ hide close-approach data ]
Close-Approach Data   ...sorted by Date/Time (TDB)
Date/Time (TDB) Time Uncertainty
(days_HH:MM)
Body Nominal Distance (au) Minimum Distance (au) Maximum Distance (au) V-relative (km/s) V-infinity (km/s) JD (TDB) Time Uncertainty (minutes) Semi-major axis (km) Semi-minor axis (km) range-LOV angle (deg) N-sigma BP Orbit Ref. Reference Modified
1902-Apr-09 11:28 00:12 Jupiter 1.89932639612529 1.89932457198307 1.89932822033586 3.65639991400122 3.53232805276663 2415848.978081321 12.1369100710224 653.04073289281 37.3151568298707 -79.892534791028 1548422.93839066 T 11 CATAB v2.0e-lin.ifort 2019-May-30 10:12:49 2019-May-30 10:12
2010-Sep-15 02:43 < 00:01 Jupiter 1.92866116688516 1.92866032964244 1.928662004128 4.51810199940111 4.41982950208609 2455454.613176041 0.674674119344977 76.9910060646336 33.9950183988895 74.7221043668692 2032290.35172359 T 11 CATAB v2.0e-lin.ifort 2019-May-30 10:12:49 2019-May-30 10:12
2021-Jul-21 14:24 < 00:01 Jupiter 1.85413200025931 1.85413119323471 1.85413280728381 4.08079409192342 3.96726871716692 2459417.099819006 0.664505831578895 89.6754783914264 36.1429040427489 89.0259295174722 1820871.15521647 T 11 CATAB v2.0e-lin.ifort 2019-May-30 10:12:49 2019-May-30 10:12
2032-May-23 07:43 00:02 Jupiter 1.92049944607668 1.92049843725795 1.92050045489595 3.39816500340509 3.26579848200376 2463375.821478512 1.90016655662004 120.775751267763 42.1810096416726 -77.2158316792354 1782866.74600081 T 11 CATAB v2.0e-lin.ifort 2019-May-30 10:12:49 2019-May-30 10:12
2140-Nov-03 22:38 00:13 Jupiter 1.87201890548081 1.8720163434802 1.87202146768036 4.31466111403675 4.20848798057819 2502986.443139356 13.1220526493895 1031.34118519165 35.0689248641945 83.7216457015311 1866699.60475749 T 11 CATAB v2.0e-lin.ifort 2019-May-30 10:12:49 2019-May-30 10:12
2151-Sep-12 05:29 00:14 Jupiter 1.84711569745313 1.84711389315049 1.84711750191399 3.8483521226996 3.72728911704737 2506950.728619483 14.2608018932504 965.632317201098 35.3269042462087 -83.681118079005 1683623.1079553 T 11 CATAB v2.0e-lin.ifort 2019-May-30 10:12:49 2019-May-30 10:12
2162-Jul-11 21:54 00:16 Jupiter 1.95765340163364 1.95764897603576 1.95765782724789 3.20801820196491 3.07018502141307 2510906.412704559 16.1985595491027 373.779861024986 73.8867303682031 -45.1812942906436 1288491.83557359 T 11 CATAB v2.0e-lin.ifort 2019-May-30 10:12:49 2019-May-30 10:12

Alternate Designations
 2007 EE135 = 2007 EX212 
Ephemeris | Orbit Diagram | Orbital Elements | Mission Design | Physical Parameters | Discovery Circumstances | Close-Approach Data ]
ABOUT SSD CREDITS/AWARDS PRIVACY/COPYRIGHT GLOSSARY LINKS
FirstGov 2020-Aug-11 08:42 UT
(server date/time)  
NASA Home Page
Site Manager:   Ryan S. Park
Webmaster  Alan B. Chamberlin